When you browse on this site, cookies collect data to enhance your experience and personalize the content and advertising you see.
Visit our Privacy Policy to learn more. By continuing to use the site, you agree to this use of cookies and data.
  • In Hungary
  • List of Countries
  • For 7 days
  • Water Temperature
  • Satellite Maps
  • Weather Map
  • News
  • Weather Widgets
  • user-avatar
    Login

    Hourly Weather Lennox

    Today, 23 February, Saturday

    Time Temperature Precipitation Wind Pressure Humidity
    00:00 +13°C° 0 mm 1 mps 764 mmHg 47%
    01:00 +12°C° 0 mm 1 mps 765 mmHg 48%
    02:00 +12°C° 0 mm 2 mps 765 mmHg 51%
    03:00 +12°C° 0 mm 2 mps 765 mmHg 53%
    04:00 +10°C° 0 mm 2 mps 765 mmHg 55%
    05:00 +10°C° 0 mm 2 mps 765 mmHg 56%
    06:00 +10°C° 0 mm 2 mps 766 mmHg 56%
    07:00 +10°C° 0 mm 2 mps 766 mmHg 57%
    08:00 +12°C° 0 mm 2 mps 766 mmHg 54%
    09:00 +12°C° 0 mm 3 mps 766 mmHg 51%
    10:00 +13°C° 0 mm 3 mps 767 mmHg 49%
    11:00 +14°C° 0 mm 3 mps 766 mmHg 45%
    12:00 +15°C° 0 mm 2 mps 766 mmHg 41%
    13:00 +16°C° 0 mm 2 mps 766 mmHg 37%
    14:00 +16°C° 0 mm 3 mps 765 mmHg 37%
    15:00 +16°C° 0 mm 3 mps 765 mmHg 37%
    16:00 +16°C° 0 mm 3 mps 765 mmHg 37%
    17:00 +16°C° 0 mm 2 mps 765 mmHg 40%
    18:00 +15°C° 0 mm 2 mps 765 mmHg 42%
    19:00 +14°C° 0 mm 1 mps 766 mmHg 44%
    20:00 +14°C° 0 mm 1 mps 766 mmHg 45%
    21:00 +14°C° 0 mm 1 mps 766 mmHg 46%
    22:00 +13°C° 0 mm 0 mps 766 mmHg 47%
    23:00 +13°C° 0 mm 0 mps 766 mmHg 48%

    Tomorrow, 24 February, Sunday

    Time Temperature Precipitation Wind Pressure Humidity
    00:00 +12°C° 0 mm 0 mps 765 mmHg 49%
    01:00 +12°C° 0 mm 0 mps 765 mmHg 49%
    02:00 +12°C° 0 mm 0 mps 765 mmHg 49%
    03:00 +13°C° 0 mm 1 mps 765 mmHg 49%
    04:00 +13°C° 0 mm 1 mps 764 mmHg 48%
    05:00 +13°C° 0 mm 1 mps 764 mmHg 47%
    06:00 +12°C° 0 mm 1 mps 764 mmHg 46%
    07:00 +12°C° 0 mm 1 mps 764 mmHg 45%
    08:00 +14°C° 0 mm 1 mps 764 mmHg 40%
    09:00 +15°C° 0 mm 1 mps 764 mmHg 36%
    10:00 +18°C° 0 mm 1 mps 764 mmHg 31%
    11:00 +19°C° 0 mm 1 mps 763 mmHg 29%
    12:00 +19°C° 0 mm 2 mps 763 mmHg 28%
    13:00 +19°C° 0 mm 3 mps 762 mmHg 27%
    14:00 +19°C° 0 mm 3 mps 762 mmHg 29%
    15:00 +19°C° 0 mm 3 mps 761 mmHg 32%
    16:00 +19°C° 0 mm 4 mps 761 mmHg 35%
    17:00 +18°C° 0 mm 3 mps 761 mmHg 40%
    18:00 +17°C° 0 mm 3 mps 761 mmHg 45%
    19:00 +16°C° 0 mm 2 mps 761 mmHg 50%
    20:00 +16°C° 0 mm 2 mps 761 mmHg 51%
    21:00 +16°C° 0 mm 1 mps 762 mmHg 53%
    22:00 +16°C° 0 mm 1 mps 762 mmHg 54%
    23:00 +15°C° 0 mm 1 mps 762 mmHg 55%

    Day after tomorrow, 25 February, Monday

    Time Temperature Precipitation Wind Pressure Humidity
    00:00 +15°C° 0 mm 1 mps 761 mmHg 56%
    01:00 +15°C° 0 mm 1 mps 761 mmHg 58%
    02:00 +14°C° 0 mm 1 mps 761 mmHg 58%
    03:00 +13°C° 0 mm 0 mps 761 mmHg 59%
    04:00 +13°C° 0 mm 0 mps 760 mmHg 59%
    05:00 +14°C° 0 mm 1 mps 760 mmHg 59%
    06:00 +14°C° 0 mm 1 mps 760 mmHg 58%
    07:00 +14°C° 0 mm 1 mps 761 mmHg 58%
    08:00 +15°C° 0 mm 1 mps 761 mmHg 54%
    09:00 +16°C° 0 mm 1 mps 761 mmHg 49%
    10:00 +18°C° 0 mm 1 mps 761 mmHg 45%
    11:00 +19°C° 0 mm 1 mps 761 mmHg 43%
    12:00 +19°C° 0 mm 2 mps 761 mmHg 40%
    13:00 +20°C° 0 mm 2 mps 760 mmHg 37%
    14:00 +20°C° 0 mm 2 mps 760 mmHg 39%
    15:00 +19°C° 0 mm 2 mps 760 mmHg 40%
    16:00 +19°C° 0 mm 3 mps 760 mmHg 42%
    17:00 +19°C° 0 mm 2 mps 760 mmHg 46%
    18:00 +18°C° 0 mm 2 mps 760 mmHg 50%
    19:00 +17°C° 0 mm 2 mps 760 mmHg 55%
    20:00 +18°C° 0 mm 1 mps 761 mmHg 57%
    21:00 +16°C° 0 mm 1 mps 761 mmHg 60%
    22:00 +15°C° 0 mm 0 mps 761 mmHg 62%
    23:00 +15°C° 0 mm 1 mps 761 mmHg 62%

    26 February, Tuesday

    Time Temperature Precipitation Wind Pressure Humidity
    00:00 +15°C° 0 mm 1 mps 761 mmHg 62%
    01:00 +15°C° 0 mm 1 mps 761 mmHg 62%
    02:00 +15°C° 0 mm 1 mps 761 mmHg 61%
    03:00 +14°C° 0 mm 1 mps 761 mmHg 60%
    04:00 +14°C° 0 mm 1 mps 761 mmHg 59%
    05:00 +14°C° 0 mm 1 mps 761 mmHg 58%
    06:00 +14°C° 0 mm 1 mps 761 mmHg 56%
    07:00 +13°C° 0 mm 0 mps 761 mmHg 54%
    08:00 +15°C° 0 mm 1 mps 762 mmHg 50%
    09:00 +16°C° 0 mm 1 mps 762 mmHg 46%
    10:00 +19°C° 0 mm 1 mps 762 mmHg 42%
    11:00 +19°C° 0 mm 1 mps 761 mmHg 39%
    12:00 +20°C° 0 mm 1 mps 761 mmHg 36%
    13:00 +21°C° 0 mm 1 mps 761 mmHg 34%
    14:00 +21°C° 0 mm 1 mps 761 mmHg 34%
    15:00 +20°C° 0 mm 2 mps 760 mmHg 34%
    16:00 +20°C° 0 mm 2 mps 760 mmHg 34%
    17:00 +19°C° 0 mm 2 mps 761 mmHg 39%
    18:00 +18°C° 0 mm 2 mps 761 mmHg 43%
    19:00 +17°C° 0 mm 2 mps 761 mmHg 47%
    20:00 +17°C° 0 mm 2 mps 762 mmHg 49%
    21:00 +17°C° 0 mm 2 mps 762 mmHg 51%
    22:00 +16°C° 0 mm 1 mps 762 mmHg 53%
    23:00 +16°C° 0 mm 1 mps 762 mmHg 53%

    27 February, Wednesday

    Time Temperature Precipitation Wind Pressure Humidity
    00:00 +16°C° 0 mm 1 mps 762 mmHg 53%
    01:00 +15°C° 0 mm 1 mps 762 mmHg 53%
    02:00 +15°C° 0 mm 1 mps 762 mmHg 52%
    03:00 +15°C° 0 mm 1 mps 762 mmHg 51%
    04:00 +15°C° 0 mm 1 mps 762 mmHg 51%
    05:00 +15°C° 0 mm 1 mps 763 mmHg 50%
    06:00 +15°C° 0 mm 1 mps 763 mmHg 50%
    07:00 +15°C° 0 mm 1 mps 763 mmHg 49%
    08:00 +16°C° 0 mm 1 mps 763 mmHg 46%
    09:00 +18°C° 0 mm 1 mps 764 mmHg 43%
    10:00 +19°C° 0 mm 1 mps 764 mmHg 40%
    11:00 +19°C° 0 mm 1 mps 764 mmHg 38%
    12:00 +19°C° 0 mm 2 mps 764 mmHg 37%
    13:00 +20°C° 0 mm 3 mps 763 mmHg 35%
    14:00 +20°C° 0 mm 3 mps 763 mmHg 39%
    15:00 +20°C° 0 mm 3 mps 763 mmHg 42%
    16:00 +20°C° 0 mm 4 mps 763 mmHg 46%
    17:00 +19°C° 0 mm 3 mps 763 mmHg 51%
    18:00 +18°C° 0 mm 3 mps 763 mmHg 57%
    19:00 +18°C° 0 mm 3 mps 763 mmHg 63%
    20:00 +17°C° 0 mm 3 mps 764 mmHg 66%
    21:00 +17°C° 0 mm 2 mps 764 mmHg 70%
    22:00 +16°C° 0 mm 2 mps 764 mmHg 73%
    23:00 +16°C° 0 mm 2 mps 764 mmHg 75%

    28 February, Thursday

    Time Temperature Precipitation Wind Pressure Humidity
    00:00 +16°C° 0 mm 1 mps 764 mmHg 77%
    01:00 +16°C° 0 mm 1 mps 763 mmHg 78%
    02:00 +16°C° 0 mm 1 mps 763 mmHg 80%
    03:00 +16°C° 0 mm 1 mps 763 mmHg 81%
    04:00 +15°C° 0 mm 0 mps 763 mmHg 83%
    05:00 +15°C° 0 mm 0 mps 763 mmHg 83%
    06:00 +15°C° 0 mm 0 mps 763 mmHg 84%
    07:00 +15°C° 0 mm 0 mps 763 mmHg 84%
    08:00 +15°C° 0 mm 0 mps 763 mmHg 81%
    09:00 +16°C° 0 mm 0 mps 763 mmHg 77%
    10:00 +17°C° 0 mm 0 mps 763 mmHg 73%
    11:00 +19°C° 0 mm 1 mps 763 mmHg 70%
    12:00 +19°C° 0 mm 2 mps 762 mmHg 66%
    13:00 +20°C° 0 mm 3 mps 762 mmHg 62%
    14:00 +20°C° 0 mm 3 mps 762 mmHg 63%
    15:00 +20°C° 0 mm 4 mps 761 mmHg 63%
    16:00 +20°C° 0 mm 4 mps 761 mmHg 63%
    17:00 +19°C° 0 mm 4 mps 761 mmHg 67%
    18:00 +18°C° 0 mm 4 mps 761 mmHg 70%
    19:00 +17°C° 0 mm 4 mps 761 mmHg 74%
    20:00 +17°C° 0 mm 3 mps 761 mmHg 76%
    21:00 +17°C° 0 mm 2 mps 761 mmHg 78%
    22:00 +16°C° 0 mm 2 mps 761 mmHg 80%
    23:00 +16°C° 0 mm 1 mps 761 mmHg 81%
    Show more